| time (UTC) | temp F | wind direction | speed MPH | gust MPH | rain 1hr in | rain 24hr in | rain mn in | humidity % | barometer mb |
| 20260905051003 | 69 | 22 | 0.0 | 0.0 | 0.00 | 0.00 | 0.00 | 89 | 1012.6 |
| 20260905050004 | 70 | 22 | 0.0 | 0.0 | 0.00 | 0.00 | 0.00 | 88 | 1012.6 |
| 20260905045503 | 70 | 22 | 0.0 | 0.0 | 0.00 | 0.00 | 0.00 | 88 | 1012.6 |
| 20260905045002 | 70 | 22 | 0.0 | 0.0 | 0.00 | 0.00 | 0.00 | 88 | 1012.7 |
| 20260905044502 | 70 | 22 | 0.0 | 0.0 | 0.00 | 0.00 | 0.00 | 88 | 1012.6 |
| 20260905044100 | 70 | 22 | 0.0 | 0.0 | 0.00 | 0.00 | 0.00 | 87 | 1012.6 |
| 20260905043600 | 70 | 22 | 0.0 | 0.0 | 0.00 | 0.00 | 0.00 | 87 | 1012.4 |
| 20260905043059 | 71 | 22 | 0.0 | 0.0 | 0.00 | 0.00 | 0.00 | 87 | 1012.4 |
| 20260905042602 | 71 | 22 | 0.0 | 0.0 | 0.00 | 0.00 | 0.00 | 86 | 1012.5 |
| 20260905042059 | 71 | 22 | 0.0 | 0.0 | 0.00 | 0.00 | 0.00 | 86 | 1012.5 |
| 20260905041600 | 71 | 22 | 0.0 | 0.0 | 0.00 | 0.00 | 0.00 | 86 | 1012.5 |
| 20260905041056 | 71 | 22 | 0.0 | 0.0 | 0.00 | 0.00 | 0.00 | 85 | 1012.5 |
| 20260905040058 | 72 | 22 | 0.0 | 0.0 | 0.00 | 0.00 | 0.00 | 85 | 1012.6 |
| 20260905035555 | 72 | 22 | 0.0 | 0.0 | 0.00 | 0.00 | 0.00 | 84 | 1012.6 |
| 20260905035054 | 72 | 22 | 0.0 | 0.0 | 0.00 | 0.00 | 0.00 | 84 | 1012.6 |
| 20260905034554 | 72 | 22 | 0.0 | 0.0 | 0.00 | 0.00 | 0.00 | 84 | 1012.6 |
| 20260905034053 | 73 | 22 | 0.0 | 0.0 | 0.00 | 0.00 | 0.00 | 84 | 1012.6 |
| 20260905033552 | 73 | 22 | 0.0 | 0.0 | 0.00 | 0.00 | 0.00 | 83 | 1012.6 |
| 20260905033052 | 73 | 22 | 0.0 | 0.0 | 0.00 | 0.00 | 0.00 | 83 | 1012.6 |
| 20260905032551 | 73 | 22 | 0.0 | 0.0 | 0.00 | 0.00 | 0.00 | 83 | 1012.5 |
| 20260905032049 | 73 | 22 | 0.0 | 0.0 | 0.00 | 0.00 | 0.00 | 83 | 1012.3 |
| 20260905031553 | 74 | 22 | 0.0 | 0.0 | 0.00 | 0.00 | 0.00 | 82 | 1012.3 |
| 20260905031047 | 74 | 22 | 0.0 | 0.0 | 0.00 | 0.00 | 0.00 | 82 | 1012.4 |
| 20260905030049 | 74 | 19 | 0.0 | 0.0 | 0.00 | 0.00 | 0.00 | 82 | 1012.2 |
| 20260905025547 | 74 | 17 | 0.0 | 0.0 | 0.00 | 0.00 | 0.00 | 82 | 1012.1 |
| 20260905025046 | 74 | 14 | 0.0 | 0.0 | 0.00 | 0.00 | 0.00 | 81 | 1012.0 |
| 20260905024550 | 75 | 9 | 0.0 | 0.0 | 0.00 | 0.00 | 0.00 | 81 | 1011.8 |
| 20260905024044 | 75 | 9 | 0.0 | 0.0 | 0.00 | 0.00 | 0.00 | 81 | 1011.8 |
| 20260905023543 | 75 | 5 | 0.0 | 0.0 | 0.00 | 0.00 | 0.00 | 80 | 1011.7 |
| 20260905023043 | 75 | 355 | 0.0 | 0.0 | 0.00 | 0.00 | 0.00 | 80 | 1011.7 |
| 20260905022541 | 76 | 355 | 0.0 | 0.0 | 0.00 | 0.00 | 0.00 | 79 | 1011.6 |
| 20260905022041 | 76 | 355 | 0.0 | 0.0 | 0.00 | 0.00 | 0.00 | 79 | 1011.6 |
| 20260905021540 | 76 | 355 | 0.0 | 0.0 | 0.00 | 0.00 | 0.00 | 79 | 1011.6 |
| 20260905021039 | 76 | 355 | 0.0 | 0.0 | 0.00 | 0.00 | 0.00 | 79 | 1011.5 |
| 20260905020038 | 76 | 360 | 0.0 | 0.0 | 0.00 | 0.00 | 0.00 | 78 | 1011.5 |
| 20260905015538 | 77 | 360 | 0.0 | 0.0 | 0.00 | 0.00 | 0.00 | 78 | 1011.4 |
| 20260905015036 | 77 | 360 | 0.0 | 0.0 | 0.00 | 0.00 | 0.00 | 78 | 1011.3 |
| 20260905014536 | 77 | 355 | 0.0 | 0.0 | 0.00 | 0.00 | 0.00 | 77 | 1011.2 |
| 20260905014034 | 77 | 355 | 0.0 | 0.0 | 0.00 | 0.00 | 0.00 | 77 | 1011.2 |
| 20260905013537 | 77 | 360 | 0.0 | 0.0 | 0.00 | 0.00 | 0.00 | 77 | 1011.1 |
| 20260905013033 | 78 | 360 | 0.0 | 0.0 | 0.00 | 0.00 | 0.00 | 77 | 1011.0 |
| 20260905012531 | 78 | 350 | 0.0 | 0.0 | 0.00 | 0.00 | 0.00 | 76 | 1011.0 |
| 20260905012030 | 78 | 350 | 0.0 | 0.0 | 0.00 | 0.00 | 0.00 | 76 | 1010.9 |
| 20260905011528 | 78 | 350 | 0.0 | 0.0 | 0.00 | 0.00 | 0.00 | 76 | 1010.8 |
| 20260905011028 | 79 | 350 | 0.0 | 0.0 | 0.00 | 0.00 | 0.00 | 76 | 1010.7 |
| 20260905010032 | 79 | 348 | 0.0 | 0.0 | 0.00 | 0.00 | 0.00 | 75 | 1010.6 |
| 20260905005525 | 80 | 348 | 0.0 | 0.0 | 0.00 | 0.00 | 0.00 | 75 | 1010.6 |
| 20260905005025 | 80 | 348 | 0.0 | 0.0 | 0.00 | 0.00 | 0.00 | 75 | 1010.6 |
| 20260905004523 | 81 | 348 | 0.0 | 0.0 | 0.00 | 0.00 | 0.00 | 74 | 1010.5 |
| 20260905004021 | 81 | 348 | 0.0 | 0.0 | 0.00 | 0.00 | 0.00 | 74 | 1010.5 |
| 20260905003519 | 82 | 348 | 0.0 | 1.0 | 0.00 | 0.00 | 0.00 | 74 | 1010.4 |
| 20260905003018 | 82 | 348 | 0.0 | 0.0 | 0.00 | 0.00 | 0.00 | 73 | 1010.4 |
| 20260905002517 | 82 | 348 | 0.0 | 0.0 | 0.00 | 0.00 | 0.00 | 73 | 1010.5 |
| 20260905002016 | 83 | 348 | 0.0 | 0.0 | 0.00 | 0.00 | 0.00 | 73 | 1010.5 |
| 20260905001515 | 83 | 348 | 0.0 | 0.0 | 0.00 | 0.00 | 0.00 | 72 | 1010.4 |
| 20260905001016 | 84 | 348 | 0.0 | 0.0 | 0.00 | 0.00 | 0.00 | 72 | 1010.3 |
| 20260905000015 | 85 | 348 | 0.0 | 0.0 | 0.00 | 0.00 | 0.00 | 70 | 1010.2 |
| 20260904235513 | 85 | 348 | 0.0 | 0.0 | 0.00 | 0.00 | 0.00 | 71 | 1010.3 |
| 20260904235011 | 85 | 348 | 0.0 | 0.0 | 0.00 | 0.00 | 0.00 | 70 | 1010.3 |
| 20260904234511 | 85 | 348 | 0.0 | 0.0 | 0.00 | 0.00 | 0.00 | 69 | 1010.3 |
| 20260904234012 | 86 | 348 | 0.0 | 0.0 | 0.00 | 0.00 | 0.00 | 69 | 1010.3 |
| 20260904233510 | 86 | 348 | 0.0 | 0.0 | 0.00 | 0.00 | 0.00 | 69 | 1010.2 |
| 20260904233015 | 86 | 348 | 0.0 | 0.0 | 0.00 | 0.00 | 0.00 | 69 | 1010.2 |
| 20260904232510 | 86 | 334 | 0.0 | 0.0 | 0.00 | 0.00 | 0.00 | 69 | 1010.1 |
| 20260904232010 | 86 | 334 | 0.0 | 0.0 | 0.00 | 0.00 | 0.00 | 68 | 1010.1 |
| 20260904231509 | 87 | 334 | 0.0 | 0.0 | 0.00 | 0.00 | 0.00 | 67 | 1010.0 |
| 20260904231009 | 87 | 334 | 0.0 | 0.0 | 0.00 | 0.00 | 0.00 | 67 | 1010.1 |
| 20260904230014 | 87 | 334 | 0.0 | 0.0 | 0.00 | 0.00 | 0.00 | 66 | 1010.0 |
| 20260904225507 | 87 | 334 | 0.0 | 0.0 | 0.00 | 0.00 | 0.00 | 65 | 1009.9 |
| 20260904225010 | 87 | 334 | 0.0 | 0.0 | 0.00 | 0.00 | 0.00 | 66 | 1009.9 |
| 20260904224509 | 87 | 334 | 0.0 | 0.0 | 0.00 | 0.00 | 0.00 | 66 | 1009.9 |
| 20260904224006 | 87 | 326 | 0.0 | 0.0 | 0.00 | 0.00 | 0.00 | 67 | 1009.9 |
| 20260904223511 | 87 | 325 | 0.0 | 0.0 | 0.00 | 0.00 | 0.00 | 66 | 1009.8 |
| 20260904223006 | 87 | 336 | 0.0 | 0.0 | 0.00 | 0.00 | 0.00 | 66 | 1009.8 |
| 20260904222508 | 87 | 336 | 0.0 | 0.0 | 0.00 | 0.00 | 0.00 | 66 | 1009.7 |
| 20260904222005 | 88 | 336 | 0.0 | 0.0 | 0.00 | 0.00 | 0.00 | 67 | 1009.6 |
| 20260904221505 | 88 | 337 | 0.0 | 0.0 | 0.00 | 0.00 | 0.00 | 67 | 1009.6 |
| 20260904221005 | 88 | 336 | 0.0 | 0.0 | 0.00 | 0.00 | 0.00 | 67 | 1009.5 |
| 20260904220004 | 88 | 336 | 0.0 | 0.0 | 0.00 | 0.00 | 0.00 | 67 | 1009.4 |
| 20260904215504 | 88 | 336 | 0.0 | 0.0 | 0.00 | 0.00 | 0.00 | 67 | 1009.4 |
| 20260904215004 | 88 | 336 | 0.0 | 0.0 | 0.00 | 0.00 | 0.00 | 69 | 1009.4 |
| 20260904214513 | 88 | 339 | 0.0 | 0.0 | 0.00 | 0.00 | 0.00 | 68 | 1009.4 |
| 20260904214004 | 88 | 338 | 0.0 | 0.0 | 0.00 | 0.00 | 0.00 | 67 | 1009.4 |
| 20260904213504 | 88 | 340 | 0.0 | 0.0 | 0.00 | 0.00 | 0.00 | 67 | 1009.4 |
| 20260904213004 | 88 | 330 | 0.0 | 0.0 | 0.00 | 0.00 | 0.00 | 67 | 1009.3 |
| 20260904212504 | 88 | 330 | 0.0 | 0.0 | 0.00 | 0.00 | 0.00 | 68 | 1009.4 |
| 20260904212004 | 88 | 331 | 0.0 | 0.0 | 0.00 | 0.00 | 0.00 | 68 | 1009.4 |
| 20260904211503 | 88 | 330 | 0.0 | 0.0 | 0.00 | 0.00 | 0.00 | 68 | 1009.3 |
| 20260904211005 | 88 | 329 | 0.0 | 0.0 | 0.00 | 0.00 | 0.00 | 68 | 1009.4 |
| 20260904210004 | 88 | 355 | 0.0 | 0.0 | 0.00 | 0.00 | 0.00 | 69 | 1009.4 |
| 20260904205503 | 87 | 319 | 0.0 | 0.0 | 0.00 | 0.00 | 0.00 | 69 | 1009.4 |
| 20260904205004 | 87 | 9 | 0.0 | 0.0 | 0.00 | 0.00 | 0.00 | 69 | 1009.4 |
| 20260904204507 | 87 | 324 | 0.0 | 0.0 | 0.00 | 0.00 | 0.00 | 70 | 1009.4 |
| 20260904204004 | 87 | 323 | 0.0 | 0.0 | 0.00 | 0.00 | 0.00 | 69 | 1009.5 |
| 20260904203504 | 87 | 9 | 0.0 | 0.0 | 0.00 | 0.00 | 0.00 | 69 | 1009.4 |
| 20260904203003 | 87 | 5 | 0.0 | 0.0 | 0.00 | 0.00 | 0.00 | 70 | 1009.4 |
| 20260904202503 | 87 | 5 | 0.0 | 0.0 | 0.00 | 0.00 | 0.00 | 70 | 1009.4 |
| 20260904202002 | 87 | 323 | 0.0 | 0.0 | 0.00 | 0.00 | 0.00 | 70 | 1009.3 |
| 20260904201502 | 87 | 355 | 0.0 | 0.0 | 0.00 | 0.00 | 0.00 | 71 | 1009.3 |
| 20260904201003 | 87 | 350 | 0.0 | 0.0 | 0.00 | 0.00 | 0.00 | 70 | 1009.4 |
| 20260904200006 | 87 | 5 | 0.0 | 0.0 | 0.00 | 0.00 | 0.00 | 71 | 1009.5 |
| 20260904195504 | 87 | 17 | 0.0 | 0.0 | 0.00 | 0.00 | 0.00 | 71 | 1009.6 |
| 20260904195003 | 87 | 350 | 0.0 | 0.0 | 0.00 | 0.00 | 0.00 | 71 | 1009.5 |
| 20260904194503 | 86 | 350 | 0.0 | 0.0 | 0.00 | 0.00 | 0.00 | 71 | 1009.6 |
| 20260904194002 | 86 | 22 | 0.0 | 0.0 | 0.00 | 0.00 | 0.00 | 72 | 1009.6 |
| 20260904193503 | 86 | 34 | 0.0 | 0.0 | 0.00 | 0.00 | 0.00 | 72 | 1009.6 |
| 20260904193003 | 86 | 311 | 0.0 | 0.0 | 0.00 | 0.00 | 0.00 | 71 | 1009.5 |
| 20260904192502 | 86 | 309 | 0.0 | 0.0 | 0.00 | 0.01 | 0.00 | 72 | 1009.5 |
| 20260904192003 | 86 | 309 | 0.0 | 0.0 | 0.00 | 0.01 | 0.00 | 72 | 1009.5 |
| 20260904191501 | 86 | 298 | 0.0 | 0.0 | 0.00 | 0.01 | 0.00 | 72 | 1009.5 |
| 20260904191001 | 86 | 30 | 0.0 | 0.0 | 0.00 | 0.01 | 0.00 | 73 | 1009.6 |
| 20260904190002 | 86 | 360 | 0.0 | 0.0 | 0.00 | 0.01 | 0.00 | 73 | 1009.6 |
| 20260904185502 | 86 | 360 | 0.0 | 0.0 | 0.00 | 0.01 | 0.00 | 73 | 1009.6 |
| 20260904185002 | 86 | 316 | 0.0 | 0.0 | 0.00 | 0.01 | 0.00 | 71 | 1009.6 |
| 20260904184502 | 87 | 329 | 0.0 | 0.0 | 0.00 | 0.01 | 0.00 | 71 | 1009.7 |
| 20260904184002 | 86 | 327 | 0.0 | 0.0 | 0.00 | 0.01 | 0.00 | 73 | 1009.6 |
| 20260904183501 | 86 | 279 | 0.0 | 0.0 | 0.00 | 0.01 | 0.00 | 72 | 1009.6 |
| 20260904183001 | 86 | 276 | 0.0 | 0.0 | 0.00 | 0.01 | 0.00 | 73 | 1009.5 |
| 20260904182559 | 86 | 275 | 0.0 | 0.0 | 0.00 | 0.03 | 0.00 | 73 | 1009.5 |
| 20260904182059 | 86 | 286 | 0.0 | 0.0 | 0.00 | 0.03 | 0.00 | 72 | 1009.4 |
| 20260904181558 | 87 | 279 | 0.0 | 0.0 | 0.00 | 0.03 | 0.00 | 71 | 1009.4 |
| 20260904181056 | 87 | 302 | 0.0 | 0.0 | 0.00 | 0.03 | 0.00 | 71 | 1009.4 |
| 20260904180655 | 87 | 289 | 0.0 | 0.0 | 0.00 | 0.03 | 0.00 | 71 | 1009.4 |
| 20260904180056 | 87 | 292 | 0.0 | 0.0 | 0.00 | 0.03 | 0.00 | 71 | 1009.4 |
| 20260904175553 | 88 | 323 | 0.0 | 0.0 | 0.00 | 0.03 | 0.00 | 71 | 1009.3 |
| 20260904175053 | 88 | 309 | 0.0 | 0.0 | 0.00 | 0.03 | 0.00 | 70 | 1009.2 |
| 20260904174552 | 88 | 29 | 0.0 | 0.0 | 0.00 | 0.03 | 0.00 | 70 | 1009.1 |
| 20260904174052 | 88 | 321 | 0.0 | 0.0 | 0.00 | 0.03 | 0.00 | 70 | 1009.1 |
| 20260904173551 | 88 | 313 | 0.0 | 0.0 | 0.00 | 0.03 | 0.00 | 70 | 1009.2 |
| 20260904173052 | 89 | 29 | 0.0 | 0.0 | 0.00 | 0.03 | 0.00 | 69 | 1009.2 |
| 20260904172551 | 89 | 348 | 0.0 | 4.0 | 0.00 | 0.05 | 0.00 | 69 | 1009.1 |
| 20260904172051 | 89 | 325 | 1.0 | 4.0 | 0.00 | 0.05 | 0.00 | 68 | 1009.1 |
| 20260904171550 | 89 | 321 | 1.0 | 4.0 | 0.00 | 0.05 | 0.00 | 68 | 1009.1 |
| 20260904171052 | 90 | 329 | 0.0 | 5.0 | 0.00 | 0.05 | 0.00 | 68 | 1009.1 |
| 20260904170648 | 89 | 25 | 0.0 | 5.0 | 0.00 | 0.05 | 0.00 | 68 | 1009.0 |
| 20260904170049 | 89 | 24 | 1.0 | 5.0 | 0.00 | 0.05 | 0.00 | 68 | 1009.0 |
| 20260904165548 | 89 | 25 | 2.0 | 6.0 | 0.00 | 0.05 | 0.00 | 68 | 1009.0 |
| 20260904165047 | 89 | 40 | 3.0 | 6.0 | 0.00 | 0.05 | 0.00 | 68 | 1009.1 |
| 20260904164546 | 88 | 258 | 0.0 | 3.0 | 0.00 | 0.05 | 0.00 | 69 | 1009.1 |
| 20260904164044 | 88 | 257 | 0.0 | 3.0 | 0.00 | 0.05 | 0.00 | 70 | 1009.2 |
| 20260904163544 | 88 | 255 | 1.0 | 4.0 | 0.00 | 0.05 | 0.00 | 70 | 1009.2 |
| 20260904163042 | 88 | 255 | 1.0 | 4.0 | 0.00 | 0.05 | 0.00 | 70 | 1009.1 |
| 20260904162541 | 88 | 254 | 0.0 | 3.0 | 0.00 | 0.07 | 0.05 | 70 | 1009.1 |
| 20260904162040 | 87 | 254 | 0.0 | 5.0 | 0.00 | 0.07 | 0.05 | 71 | 1009.2 |
| 20260904161543 | 87 | 254 | 1.0 | 5.0 | 0.00 | 0.07 | 0.05 | 71 | 1009.1 |
| 20260904161040 | 87 | 231 | 0.0 | 2.0 | 0.00 | 0.07 | 0.05 | 71 | 1009.0 |
| 20260904160640 | 87 | 230 | 0.0 | 4.0 | 0.00 | 0.07 | 0.05 | 72 | 1008.9 |
| 20260904160039 | 87 | 230 | 0.0 | 4.0 | 0.00 | 0.07 | 0.05 | 72 | 1009.0 |
| 20260904155537 | 86 | 230 | 1.0 | 4.0 | 0.00 | 0.07 | 0.05 | 72 | 1009.0 |
| 20260904155036 | 86 | 230 | 0.0 | 4.0 | 0.00 | 0.07 | 0.05 | 73 | 1009.0 |
| 20260904154537 | 86 | 230 | 1.0 | 5.0 | 0.00 | 0.07 | 0.05 | 73 | 1009.0 |
| 20260904154035 | 86 | 186 | 0.0 | 5.0 | 0.00 | 0.07 | 0.05 | 73 | 1009.0 |
| 20260904153535 | 86 | 186 | 0.0 | 5.0 | 0.00 | 0.07 | 0.05 | 73 | 1008.9 |
| 20260904153045 | 85 | 188 | 0.0 | 4.0 | 0.00 | 0.07 | 0.05 | 74 | 1008.8 |
| 20260904152532 | 85 | 166 | 0.0 | 2.0 | 0.00 | 0.07 | 0.05 | 75 | 1008.8 |
| 20260904152031 | 84 | 166 | 0.0 | 1.0 | 0.00 | 0.07 | 0.05 | 76 | 1008.8 |
| 20260904151530 | 84 | 166 | 0.0 | 5.0 | 0.00 | 0.07 | 0.05 | 76 | 1008.8 |
| 20260904151034 | 84 | 166 | 2.0 | 5.0 | 0.00 | 0.07 | 0.05 | 76 | 1008.8 |
| 20260904150630 | 83 | 137 | 0.0 | 3.0 | 0.00 | 0.07 | 0.05 | 77 | 1008.8 |
| 20260904150030 | 83 | 137 | 0.0 | 3.0 | 0.00 | 0.07 | 0.05 | 78 | 1008.8 |
| 20260904145530 | 83 | 134 | 0.0 | 2.0 | 0.00 | 0.07 | 0.05 | 79 | 1008.8 |
| 20260904145030 | 82 | 132 | 0.0 | 1.0 | 0.00 | 0.07 | 0.05 | 80 | 1008.9 |
| 20260904144531 | 82 | 132 | 0.0 | 1.0 | 0.00 | 0.07 | 0.05 | 81 | 1008.8 |
| 20260904144029 | 81 | 132 | 0.0 | 0.0 | 0.00 | 0.07 | 0.05 | 82 | 1008.7 |
| 20260904143529 | 81 | 132 | 0.0 | 0.0 | 0.00 | 0.07 | 0.05 | 82 | 1008.7 |
| 20260904143029 | 81 | 132 | 0.0 | 0.0 | 0.00 | 0.07 | 0.05 | 83 | 1008.7 |
| 20260904142529 | 80 | 132 | 0.0 | 0.0 | 0.00 | 0.07 | 0.05 | 84 | 1008.7 |
| 20260904142032 | 80 | 132 | 0.0 | 0.0 | 0.00 | 0.07 | 0.05 | 85 | 1008.8 |
| 20260904141529 | 79 | 132 | 0.0 | 0.0 | 0.00 | 0.07 | 0.05 | 86 | 1008.8 |
| 20260904141028 | 79 | 132 | 0.0 | 0.0 | 0.00 | 0.07 | 0.05 | 87 | 1008.8 |
| 20260904140631 | 79 | 132 | 0.0 | 3.0 | 0.00 | 0.07 | 0.05 | 88 | 1008.7 |
| 20260904140030 | 78 | 132 | 0.0 | 3.0 | 0.00 | 0.07 | 0.05 | 89 | 1008.7 |
| 20260904135530 | 78 | 132 | 0.0 | 3.0 | 0.00 | 0.07 | 0.05 | 90 | 1008.8 |
| 20260904135031 | 78 | 130 | 0.0 | 0.0 | 0.00 | 0.07 | 0.05 | 90 | 1008.8 |
| 20260904134531 | 77 | 130 | 0.0 | 0.0 | 0.00 | 0.07 | 0.05 | 91 | 1008.9 |
| 20260904134031 | 77 | 130 | 0.0 | 0.0 | 0.00 | 0.07 | 0.05 | 92 | 1009.0 |
| 20260904133531 | 76 | 129 | 0.0 | 0.0 | 0.00 | 0.07 | 0.05 | 92 | 1009.1 |
| 20260904133030 | 76 | 126 | 0.0 | 1.0 | 0.00 | 0.07 | 0.05 | 93 | 1009.0 |
| 20260904132530 | 75 | 126 | 0.0 | 0.0 | 0.00 | 0.07 | 0.05 | 93 | 1008.9 |
| 20260904132030 | 75 | 126 | 0.0 | 0.0 | 0.00 | 0.07 | 0.05 | 93 | 1008.8 |
| 20260904131529 | 75 | 126 | 0.0 | 0.0 | 0.00 | 0.07 | 0.05 | 93 | 1008.7 |
| 20260904131029 | 75 | 126 | 0.0 | 0.0 | 0.00 | 0.07 | 0.05 | 93 | 1008.7 |
| 20260904130632 | 74 | 125 | 0.0 | 0.0 | 0.00 | 0.07 | 0.05 | 93 | 1008.5 |
| 20260904130040 | 74 | 125 | 0.0 | 0.0 | 0.00 | 0.07 | 0.05 | 93 | 1008.5 |
| 20260904125528 | 74 | 125 | 0.0 | 0.0 | 0.00 | 0.07 | 0.05 | 93 | 1008.6 |
| 20260904125028 | 73 | 125 | 0.0 | 0.0 | 0.00 | 0.07 | 0.05 | 93 | 1008.5 |
| 20260904124528 | 73 | 125 | 0.0 | 0.0 | 0.00 | 0.07 | 0.05 | 93 | 1008.4 |
| 20260904124031 | 73 | 126 | 0.0 | 0.0 | 0.00 | 0.07 | 0.05 | 93 | 1008.4 |
| 20260904123530 | 73 | 125 | 0.0 | 0.0 | 0.00 | 0.07 | 0.05 | 93 | 1008.3 |
| 20260904123027 | 73 | 126 | 0.0 | 0.0 | 0.00 | 0.07 | 0.05 | 93 | 1008.2 |
| 20260904122527 | 73 | 126 | 0.0 | 0.0 | 0.00 | 0.15 | 0.05 | 93 | 1008.3 |
| 20260904122027 | 73 | 145 | 0.0 | 0.0 | 0.00 | 0.15 | 0.05 | 93 | 1008.2 |
| 20260904121527 | 73 | 145 | 0.0 | 0.0 | 0.00 | 0.15 | 0.05 | 93 | 1008.2 |
| 20260904121026 | 73 | 146 | 0.0 | 0.0 | 0.00 | 0.15 | 0.05 | 93 | 1008.1 |
| 20260904120626 | 73 | 146 | 0.0 | 0.0 | 0.00 | 0.15 | 0.05 | 93 | 1008.2 |
| 20260904120036 | 73 | 150 | 0.0 | 0.0 | 0.00 | 0.15 | 0.05 | 93 | 1008.1 |
| 20260904115528 | 73 | 150 | 0.0 | 0.0 | 0.00 | 0.15 | 0.05 | 93 | 1008.1 |
| 20260904115028 | 73 | 150 | 0.0 | 0.0 | 0.00 | 0.15 | 0.05 | 93 | 1008.1 |
| 20260904114528 | 73 | 150 | 0.0 | 0.0 | 0.00 | 0.15 | 0.05 | 93 | 1008.1 |
| 20260904114031 | 73 | 150 | 0.0 | 0.0 | 0.00 | 0.15 | 0.05 | 93 | 1008.1 |
| 20260904113527 | 73 | 150 | 0.0 | 0.0 | 0.00 | 0.15 | 0.05 | 93 | 1007.9 |
| 20260904113032 | 73 | 150 | 0.0 | 0.0 | 0.00 | 0.15 | 0.05 | 93 | 1007.8 |
| 20260904112528 | 73 | 150 | 0.0 | 0.0 | 0.00 | 0.15 | 0.05 | 92 | 1007.9 |
| 20260904112026 | 73 | 150 | 0.0 | 0.0 | 0.00 | 0.15 | 0.05 | 93 | 1007.9 |
| 20260904111526 | 73 | 150 | 0.0 | 0.0 | 0.00 | 0.15 | 0.05 | 93 | 1007.8 |
| 20260904111029 | 73 | 150 | 0.0 | 0.0 | 0.00 | 0.15 | 0.05 | 93 | 1007.7 |
| 20260904110627 | 73 | 150 | 0.0 | 0.0 | 0.00 | 0.15 | 0.05 | 92 | 1007.9 |
| 20260904110025 | 73 | 150 | 0.0 | 0.0 | 0.00 | 0.15 | 0.05 | 92 | 1007.8 |
| 20260904105526 | 74 | 150 | 0.0 | 0.0 | 0.00 | 0.15 | 0.05 | 92 | 1007.7 |
| 20260904105026 | 74 | 150 | 0.0 | 0.0 | 0.00 | 0.15 | 0.05 | 92 | 1007.9 |
| 20260904104528 | 74 | 150 | 0.0 | 0.0 | 0.00 | 0.15 | 0.05 | 92 | 1008.0 |
| 20260904104026 | 74 | 150 | 0.0 | 0.0 | 0.00 | 0.15 | 0.05 | 92 | 1007.9 |
| 20260904103524 | 74 | 150 | 0.0 | 0.0 | 0.00 | 0.15 | 0.05 | 93 | 1007.9 |
| 20260904103025 | 74 | 150 | 0.0 | 0.0 | 0.00 | 0.15 | 0.05 | 93 | 1007.8 |
| 20260904102525 | 74 | 150 | 0.0 | 0.0 | 0.00 | 0.15 | 0.05 | 92 | 1007.8 |
| 20260904102024 | 74 | 150 | 0.0 | 0.0 | 0.00 | 0.15 | 0.05 | 92 | 1007.8 |
| 20260904101524 | 74 | 150 | 0.0 | 0.0 | 0.00 | 0.15 | 0.05 | 93 | 1007.8 |
| 20260904101024 | 74 | 150 | 0.0 | 0.0 | 0.00 | 0.15 | 0.05 | 92 | 1007.9 |
| 20260904100624 | 74 | 150 | 0.0 | 0.0 | 0.00 | 0.15 | 0.05 | 93 | 1007.9 |
| 20260904100026 | 74 | 150 | 0.0 | 0.0 | 0.00 | 0.15 | 0.05 | 93 | 1007.8 |
| 20260904095529 | 74 | 150 | 0.0 | 0.0 | 0.00 | 0.15 | 0.05 | 92 | 1007.8 |
| 20260904095025 | 74 | 150 | 0.0 | 0.0 | 0.00 | 0.15 | 0.05 | 92 | 1007.7 |
| 20260904094525 | 74 | 150 | 0.0 | 0.0 | 0.00 | 0.15 | 0.05 | 92 | 1007.7 |
| 20260904094025 | 74 | 150 | 0.0 | 0.0 | 0.00 | 0.15 | 0.05 | 92 | 1007.6 |
| 20260904093525 | 74 | 150 | 0.0 | 0.0 | 0.00 | 0.15 | 0.05 | 92 | 1007.6 |
| 20260904093027 | 74 | 120 | 0.0 | 0.0 | 0.00 | 0.15 | 0.05 | 92 | 1007.7 |
| 20260904092525 | 74 | 120 | 0.0 | 0.0 | 0.00 | 0.15 | 0.05 | 92 | 1007.6 |
| 20260904092029 | 74 | 120 | 0.0 | 0.0 | 0.00 | 0.15 | 0.05 | 93 | 1007.6 |
| 20260904091525 | 74 | 120 | 0.0 | 0.0 | 0.00 | 0.15 | 0.05 | 93 | 1007.5 |
| 20260904091025 | 74 | 120 | 0.0 | 0.0 | 0.00 | 0.15 | 0.05 | 93 | 1007.5 |
| 20260904090624 | 74 | 120 | 0.0 | 0.0 | 0.00 | 0.15 | 0.05 | 93 | 1007.5 |
| 20260904090031 | 74 | 120 | 0.0 | 0.0 | 0.00 | 0.15 | 0.05 | 92 | 1007.6 |
| 20260904085525 | 74 | 120 | 0.0 | 0.0 | 0.00 | 0.15 | 0.05 | 93 | 1007.5 |
| 20260904085027 | 74 | 120 | 0.0 | 0.0 | 0.00 | 0.15 | 0.05 | 93 | 1007.5 |
| 20260904084525 | 75 | 120 | 0.0 | 0.0 | 0.00 | 0.15 | 0.05 | 93 | 1007.4 |
| 20260904084026 | 75 | 120 | 0.0 | 0.0 | 0.00 | 0.15 | 0.05 | 93 | 1007.3 |
| 20260904083524 | 75 | 120 | 0.0 | 0.0 | 0.00 | 0.15 | 0.05 | 93 | 1007.3 |
| 20260904083032 | 75 | 120 | 0.0 | 0.0 | 0.00 | 0.15 | 0.05 | 93 | 1007.3 |
| 20260904082524 | 75 | 120 | 0.0 | 0.0 | 0.00 | 0.15 | 0.05 | 93 | 1007.2 |
| 20260904082025 | 75 | 120 | 0.0 | 0.0 | 0.00 | 0.15 | 0.05 | 93 | 1007.3 |
| 20260904081523 | 75 | 120 | 0.0 | 0.0 | 0.00 | 0.15 | 0.05 | 93 | 1007.2 |
| 20260904081023 | 75 | 120 | 0.0 | 0.0 | 0.00 | 0.15 | 0.05 | 93 | 1007.2 |
| 20260904080624 | 75 | 120 | 0.0 | 0.0 | 0.00 | 0.15 | 0.05 | 92 | 1007.3 |
| 20260904080022 | 75 | 120 | 0.0 | 0.0 | 0.00 | 0.15 | 0.05 | 92 | 1007.2 |
| 20260904075521 | 75 | 120 | 0.0 | 0.0 | 0.00 | 0.15 | 0.05 | 92 | 1007.2 |
| 20260904075022 | 75 | 120 | 0.0 | 0.0 | 0.00 | 0.15 | 0.05 | 92 | 1007.3 |
| 20260904074522 | 75 | 120 | 0.0 | 0.0 | 0.00 | 0.15 | 0.05 | 92 | 1007.2 |
| 20260904074021 | 75 | 120 | 0.0 | 0.0 | 0.00 | 0.15 | 0.05 | 92 | 1007.2 |
| 20260904073526 | 75 | 120 | 0.0 | 0.0 | 0.00 | 0.15 | 0.05 | 92 | 1007.2 |
| 20260904073022 | 75 | 120 | 0.0 | 0.0 | 0.00 | 0.15 | 0.05 | 92 | 1007.2 |
| 20260904072521 | 75 | 120 | 0.0 | 0.0 | 0.00 | 0.15 | 0.05 | 92 | 1007.3 |
| 20260904072021 | 75 | 120 | 0.0 | 0.0 | 0.00 | 0.15 | 0.05 | 92 | 1007.3 |
| 20260904071522 | 75 | 120 | 0.0 | 0.0 | 0.00 | 0.15 | 0.05 | 92 | 1007.4 |
| 20260904071023 | 75 | 120 | 0.0 | 0.0 | 0.00 | 0.15 | 0.05 | 92 | 1007.4 |
| 20260904070621 | 75 | 120 | 0.0 | 0.0 | 0.00 | 0.15 | 0.05 | 92 | 1007.4 |
| 20260904070023 | 75 | 121 | 0.0 | 0.0 | 0.00 | 0.15 | 0.05 | 92 | 1007.5 |
| 20260904065523 | 75 | 121 | 0.0 | 0.0 | 0.00 | 0.15 | 0.05 | 92 | 1007.5 |
| 20260904065023 | 75 | 121 | 0.0 | 0.0 | 0.00 | 0.15 | 0.05 | 91 | 1007.5 |
| 20260904064522 | 75 | 121 | 0.0 | 0.0 | 0.00 | 0.15 | 0.05 | 91 | 1007.5 |
| 20260904064023 | 75 | 121 | 0.0 | 0.0 | 0.00 | 0.15 | 0.05 | 91 | 1007.5 |
| 20260904063522 | 75 | 121 | 0.0 | 0.0 | 0.00 | 0.15 | 0.05 | 91 | 1007.7 |
| 20260904063022 | 75 | 121 | 0.0 | 0.0 | 0.00 | 0.15 | 0.05 | 91 | 1007.6 |
| 20260904062523 | 75 | 121 | 0.0 | 0.0 | 0.00 | 0.15 | 0.05 | 91 | 1007.6 |
| 20260904062022 | 75 | 121 | 0.0 | 0.0 | 0.00 | 0.15 | 0.05 | 91 | 1007.6 |
| 20260904061537 | 75 | 121 | 0.0 | 0.0 | 0.00 | 0.15 | 0.05 | 91 | 1007.6 |
| 20260904061022 | 75 | 121 | 0.0 | 0.0 | 0.00 | 0.15 | 0.05 | 91 | 1007.6 |
| 20260904060624 | 75 | 148 | 0.0 | 0.0 | 0.00 | 0.15 | 0.05 | 91 | 1007.5 |
| 20260904060022 | 75 | 142 | 0.0 | 0.0 | 0.00 | 0.15 | 0.05 | 91 | 1007.5 |
| 20260904055521 | 75 | 140 | 0.0 | 0.0 | 0.00 | 0.15 | 0.05 | 91 | 1007.6 |
| 20260904055020 | 75 | 140 | 0.0 | 0.0 | 0.00 | 0.15 | 0.05 | 91 | 1007.6 |
| 20260904054523 | 75 | 138 | 0.0 | 0.0 | 0.00 | 0.15 | 0.05 | 91 | 1007.6 |
| 20260904054022 | 75 | 157 | 0.0 | 0.0 | 0.00 | 0.15 | 0.05 | 90 | 1007.6 |
| 20260904053523 | 75 | 147 | 0.0 | 0.0 | 0.00 | 0.15 | 0.05 | 90 | 1007.6 |
| 20260904053021 | 75 | 150 | 0.0 | 0.0 | 0.00 | 0.15 | 0.05 | 90 | 1007.6 |
| 20260904052521 | 76 | 153 | 0.0 | 0.0 | 0.00 | 0.15 | 0.05 | 90 | 1007.5 |
| 20260904052020 | 76 | 171 | 0.0 | 0.0 | 0.00 | 0.15 | 0.05 | 90 | 1007.5 |
| 20260904051520 | 76 | 138 | 0.0 | 0.0 | 0.00 | 0.15 | 0.05 | 90 | 1007.5 |